DECAYED
Showing default

PROTOSAT-1, 61793 (Decayed)

Orbit data source: Space-Track

PROTOSAT-1, 61793 was a Rwandan payload satellite in LEO that was launched on Tue, 05 Nov 2024 UTC via an ELECTRON launch vehicle from the Rocket Lab Launch Complex (RLLC). Payload-class satellites include a variety of spacecraft equipped with specific instruments for various scientific and technological missions. These include communications satellites like Starlink; space stations such as the ISS; scientific satellites like the Hubble; Earth observation satellites from companies like Planet Labs, Umbra, and HawkEye 360; GPS; miniature CubeSats for education and research; and military/defense satellites.

Loading next visibility...
Identifier
61793, 2024-201B
Orbit
Decayed
Country
Flag of RWRW / RWA
Related business
Manufacturer
E-Space
Mission
Decayed Commercial Communications
Bus & Motor
E-SPACE, Unknown motor
Mass
~100 kg wet, ~100 kg dry
Launch date (UTC)
2024-11-05 (1 year ago)
Launch vehicle
ELECTRON
Launch site
Rocket Lab Launch Complex (RLLC)
Object type
Payload
Rocket body
Debris
Shape & HBR
Box + 2 Pan, 0.5 m
Radar Cross Section
0.446 m², Large (>1 m²)

Expand to show TLE details & history
Last TLE update: 3 weeks ago

TLE from 3 weeks ago
0 PROTOSAT-1
1 61793U 24201B   26054.82519766  .00032486  00000-0  11844-2 0  9999
2 61793  43.0012 257.7765 0001473 278.2072  81.8612 15.27591600 72764
Epoch: 2026-02-23T19:48Z
TLE epoch observation values (Epoch: 2026-02-23T19:48:17.077Z)
Latitude
-0.00007°
Longitude
166.99175°
Altitude
482.647 km
Speed
7.626 km/s
True Right ascension
17h 11m 06s
True Declination
0° 00' 00"
Sunlit
Object was in daylight at epoch
Visualization orbit readout
Latitude
Unknown
Longitude
Unknown
Altitude
Unknown
Speed
Unknown
Apparent Right ascension
Unknown
Apparent Declination
Unknown
Sunlit
N/A
Visualization observer readout
Local Sidereal Time
02:56:23
Azimuth
Unknown
Elevation
Unknown
Doppler factor
Unknown
Orbital elements
Apogee altitude
485.97 km
Perigee altitude
483.948 km
Semi-major axis
6,863.096 km
Eccentricity
0.00015
Inclination
43.0012°
RAAN
257.7765°
Arg. of periapsis
278.2072°
True anomaly
81.87791°
Mean anomaly
81.8612°
Eccentric anomaly
81.86955°
Mean motion
3.81736 °/min
Orbital period
94.31 mins
BSTAR
0.0011844
Loading maneuver chart data...
Computing Atmospheric mass density...
Loading historical data...
Loading historical data...
Loading historical data...
Loading historical data...
Loading historical data...
Loading historical data...
Loading historical data...
Other satellites on launch #201 in the year 2024 (2024-11-05 UTC)

Documentation

Showing up to 5 results
|